Location: ??? ???
(33.4974°N, 35.4618°E)
Time: 18:36:17
(UTC+00:00)

Geosat - Pass Details

Date: 29 October 2020
Orbit: 763 x 766 km, 108.0° (Epoch: 01 December)

Event Time Altitude Azimuth Distance (km) Brightness Sun altitude
Exits shadow 16:12:40 12° 28° (NNE) 2,191 6.1 -18.0°
Maximum altitude 16:17:24 76° 113° (ESE) 790 3.9 -19.0°
Drops below altitude 10° 16:22:25 10° 200° (SSW) 2,294 6.7 -20.0°
Sets 16:24:41 0° 202° (SSW) 3,216 7.6 -20.5°
